Location: Napa Junction
(38.1874°N, 122.2508°W)
Time: 00:07:57
(UTC+00:00)

CENTAUR R/B - Pass Details

Date: 09 December 2024
Orbit: 654 x 1528 km, 63.4° (Epoch: 19 January)

Event Time Altitude Azimuth Distance (km) Brightness Sun altitude
Rises 12:35:49 0° 153° (SSE) 3,128 5.6 -30.3°
Reaches altitude 10° 12:39:56 10° 119° (ESE) 2,364 5.3 -29.5°
Maximum altitude 12:41:31 11° 101° (ESE) 2,344 5.4 -29.2°
Drops below altitude 10° 12:43:10 10° 84° (E) 2,510 5.6 -28.9°
Sets 12:47:59 0° 53° (NE) 3,692 6.1 -28.0°
